GLOBALSTAR M074

Last updated on Mon Sep 21 2026 00:03:12 GMT+0000 (Coordinated Universal Time)

1 37189U 10054B 26263.52475822 -.00000105 00000+0 -48149-5 0 9990 2 37189 52.0011 177.7007 0000575 54.5460 116.9114 12.62263213735195
UTC large
Height (km)
Speed (km/s)
/
Latitude / Longitude
Inclination (degrees)
Orbital Period (minutes)
Azimuth
Elevation
Range (km)
Doppler Factor

Next 0 passes for location: London (51.5072 / 0.1276)

No passes found over London.
GLOBALSTAR M074